Satellite-Ground Cal/Val Site Overpasses Predictions

Prediction of Satellite NPP Overpassing Cal/Val Site: Antarctic Dome C

Ground Cal/Val Site Location: Latitude: -75.10, Longitude: 123.35; Satellite-Ground Site NADIR distance within 100 km.

Table of predicted overpasses for the next 14.0 days since TLE Epoch: 8/26/2022
Interval Starting Time Ending Time Minimum Distance Time Minimum Distance (km)
1 08/28/2022 15:02:06 08/28/2022 15:02:29 08/28/2022 15:02:17 61.38
2 08/29/2022 14:43:15 08/29/2022 14:43:41 08/29/2022 14:43:28 47.88
3 08/30/2022 07:44:57 08/30/2022 07:45:17 08/30/2022 07:45:07 72.86
4 08/31/2022 07:26:05 08/31/2022 07:26:33 08/31/2022 07:26:19 34.84
5 09/02/2022 15:08:36 09/02/2022 15:08:38 09/02/2022 15:08:37 99.37
6 09/03/2022 14:49:33 09/03/2022 14:50:02 09/03/2022 14:49:47 12.03
7 09/05/2022 07:32:23 09/05/2022 07:32:52 09/05/2022 07:32:38 3.42
